Wind_Speed
27 28 28 27 27 26 26 25 26 26 27 27 28 28 28 26 22 18 13 9 5 4 5 7 7 5 3 2 3 5 6 8 8 8 7 7 7 7 6 6 4 4 4 4 4 5 5 5 5 6 6 6 6 6 6 6 5 6 6 7 8 8 9 10 10 10 10 10 9
27 28 28 28 27 27 27 27 26 27 28 30 31 31 30 28 25 21 15 10 7 5 4 4 3 3 5 5 2 2 3 4 4 5 5 5 6 6 6 5 4 4 4 4 4 4 4 4 4 4 5 6 7 7 7 7 7 7 8 8 9 9 9 10 10 10 11 10 10
28 28 28 28 28 29 28 27 27 28 30 32 34 33 31 29 27 24 19 14 11 9 8 7 5 1 2 2 1 1 2 3 2 3 4 4 4 5 5 5 4 4 4 4 4 3 3 3 3 3 4 5 5 6 6 6 7 7 8 9 10 10 10 10 10 10 11 11 11
28 28 28 28 29 30 30 29 29 29 30 31 33 33 31 28 26 24 21 16 13 11 11 10 9 7 5 4 4 5 6 6 3 3 3 3 4 4 5 5 4 4 3 3 3 3 3 3 3 3 4 4 5 5 6 6 6 7 8 9 10 10 10 10 10 10 10 10 10
29 29 28 28 29 30 30 30 31 31 30 30 32 33 31 27 23 21 19 17 15 13 13 12 11 10 8 7 8 10 12 12 10 6 4 4 4 4 4 4 4 3 2 2 2 2 3 3 4 4 5 5 6 6 6 7 7 8 8 9 9 9 9 9 9 9 10 10 10
29 29 29 29 29 30 30 31 32 32 31 30 31 33 33 29 24 20 18 18 17 16 15 15 13 12 10 9 10 11 11 9 7 5 4 4 4 4 4 4 3 2 1 2 3 4 4 5 5 6 6 6 6 7 7 8 8 9 9 9 8 8 8 9 9 9 10 10 10
29 29 29 29 30 30 31 31 32 32 32 31 31 32 33 32 29 24 20 18 17 17 17 17 17 15 13 11 10 8 6 4 4 4 4 4 4 3 3 3 3 2 2 3 4 5 5 6 6 6 6 6 6 6 7 7 8 9 9 9 8 8 8 8 9 10 10 11 11
29 29 29 30 30 31 31 32 32 32 32 31 31 32 34 34 32 29 24 20 17 16 16 17 17 17 16 13 11 9 7 5 4 5 5 5 4 3 2 2 2 2 3 4 4 5 6 6 5 5 5 5 5 6 6 6 7 8 8 8 8 8 7 7 8 9 10 11 12
28 29 30 30 30 31 31 32 32 32 32 32 32 33 34 34 34 33 30 26 21 17 16 16 16 16 16 14 13 11 10 9 7 6 6 6 4 3 3 2 3 3 3 3 4 5 5 4 4 4 4 4 4 5 6 6 7 7 7 7 7 7 7 7 7 7 8 9 11
29 30 30 30 30 31 31 32 32 31 31 31 32 33 34 34 33 33 32 31 27 22 19 18 16 16 15 14 12 11 11 10 9 8 7 6 5 4 3 3 3 3 3 3 3 3 3 3 3 2 3 3 3 4 5 6 6 7 7 7 7 7 8 8 7 7 7 8 8
29 29 29 29 29 30 31 31 31 30 29 30 31 33 33 33 32 31 31 31 29 26 23 19 17 16 16 14 12 11 11 10 9 7 6 5 4 4 3 3 3 3 3 3 3 2 2 2 2 1 1 2 2 3 4 4 5 5 6 6 6 7 7 8 8 8 8 8 8
28 29 28 28 29 29 30 30 30 29 29 29 30 32 33 33 31 30 28 28 27 25 21 16 14 14 15 15 14 12 12 11 10 8 6 5 5 4 3 3 3 3 3 2 2 2 2 2 2 1 1 0 1 1 2 3 3 3 4 4 4 5 6 7 8 9 9 9 9
28 28 28 28 29 29 29 30 29 29 28 28 29 31 32 33 31 29 27 27 26 24 19 13 11 12 14 15 14 13 12 12 12 10 7 5 5 5 4 4 4 4 3 3 3 2 2 3 3 2 2 1 1 0 1 1 2 2 3 3 3 4 4 5 6 7 8 8 9
27 27 27 28 29 29 29 28 29 29 28 28 29 30 31 31 30 28 27 26 27 26 22 15 12 13 13 13 13 13 13 13 11 9 8 7 6 6 6 6 6 5 5 4 4 3 3 3 3 3 3 3 2 2 1 1 2 2 3 3 4 4 4 4 4 5 5 6 6
26 27 27 28 29 28 28 28 29 29 29 28 28 27 26 25 25 26 27 28 30 29 27 22 18 17 16 15 15 14 13 12 11 9 9 8 8 8 8 8 7 7 6 5 5 5 4 4 4 4 4 4 4 3 3 3 3 3 3 3 4 4 4 4 4 4 4 4 4
26 27 27 28 28 28 28 28 29 29 29 28 27 24 22 21 18 18 21 26 29 30 28 26 23 22 22 21 20 17 15 12 11 10 10 9 9 10 10 9 8 8 7 6 6 5 5 5 5 5 5 5 5 5 5 5 5 4 4 3 3 4 4 4 3 3 4 4 5
26 27 27 28 28 28 28 28 28 29 29 28 26 24 22 20 17 13 10 13 17 20 21 22 21 21 21 21 21 21 18 13 11 10 11 11 11 11 11 10 9 8 8 7 6 6 5 5 5 5 6 6 7 7 7 7 7 6 5 5 4 4 5 5 4 4 4 4 5
26 27 28 28 28 28 28 27 27 27 28 27 26 24 22 20 17 14 9 3 4 8 12 14 15 15 16 17 18 20 19 14 12 12 12 12 12 12 12 11 10 9 8 7 6 5 5 5 6 6 7 8 8 9 9 9 8 8 7 7 6 6 6 5 5 5 4 4 4
26 27 28 28 28 28 28 27 27 27 27 27 25 24 22 19 17 14 10 6 3 3 5 8 9 10 10 12 12 14 14 14 14 13 13 13 13 13 12 11 10 9 8 7 6 6 6 6 7 8 9 10 10 10 10 10 10 9 9 8 8 8 7 7 6 6 6 5 5
26 27 27 27 27 27 27 27 28 28 27 26 25 23 21 19 16 14 11 8 6 5 4 5 6 6 6 8 9 11 13 14 14 14 14 14 14 14 13 12 11 9 8 8 8 8 8 9 10 11 12 12 12 12 12 12 11 11 10 10 9 9 9 9 9 9 8 8 7
26 27 27 27 26 26 26 27 27 28 27 26 25 23 21 18 16 14 11 8 7 5 5 4 5 5 6 7 9 10 12 13 14 15 16 16 16 15 13 12 10 9 9 9 9 10 11 11 12 13 13 13 13 13 13 13 12 12 12 11 11 11 11 11 11 11 11 10 10
26 27 27 26 26 26 26 27 27 28 28 27 25 23 20 18 16 13 10 8 6 5 4 3 3 4 5 6 7 9 10 12 14 15 16 16 16 15 13 13 12 11 11 10 10 11 12 12 13 13 13 13 14 13 13 13 13 13 13 13 13 12 12 12 12 13 13 12 12
26 27 26 26 26 26 26 27 28 28 28 27 26 23 21 18 16 13 10 8 6 5 4 3 2 2 4 5 6 8 11 13 14 15 16 15 16 15 15 15 15 14 13 12 12 12 12 13 14 14 14 14 14 14 13 13 13 14 14 14 13 13 13 13 13 13 13 13 12
26 26 26 25 26 27 28 28 29 29 29 28 27 25 22 19 16 13 10 8 7 6 5 4 3 3 5 6 8 11 13 14 15 15 15 16 16 17 17 17 16 15 14 13 12 12 13 14 15 15 15 15 15 15 14 14 14 14 14 14 14 14 14 14 13 13 13 13 13
26 26 25 25 26 28 29 29 29 29 29 29 28 26 23 21 17 14 11 8 7 7 7 8 9 11 12 14 15 15 15 16 16 16 17 17 17 18 18 18 17 16 15 14 13 13 13 14 15 16 16 16 16 15 15 15 15 15 15 14 14 14 14 14 13 13 13 12 12
26 25 25 25 27 28 29 29 29 29 29 30 29 27 25 22 18 15 13 11 10 10 12 14 15 16 17 18 18 18 18 17 17 17 18 18 19 20 20 19 18 17 16 15 14 14 14 14 15 16 16 16 16 16 15 15 15 14 14 14 14 13 13 12 12 11 11 11 10
26 25 24 25 27 28 29 29 29 29 30 30 30 28 26 22 20 18 16 15 15 15 15 16 17 18 19 20 21 21 21 20 19 19 20 21 21 21 21 20 19 18 17 16 16 15 15 15 14 15 15 15 15 15 15 14 14 14 13 13 13 12 12 12 11 10 10 9 8
27 25 24 25 27 28 28 29 29 29 30 30 30 28 26 23 21 20 20 19 18 17 16 17 18 20 21 22 23 23 22 21 21 20 21 22 22 22 21 20 19 18 17 17 16 16 15 15 14 14 14 14 13 13 13 13 12 12 12 12 11 11 11 11 10 10 9 9 8
27 25 24 24 26 27 28 29 29 29 29 29 29 28 26 23 21 21 21 21 20 18 17 17 19 22 24 24 24 24 23 23 22 21 22 22 22 22 21 20 20 18 17 16 16 16 15 15 14 13 12 12 12 11 11 11 11 10 10 10 10 10 10 9 9 9 9 8 8
26 25 24 24 25 26 27 28 29 29 29 28 28 28 26 23 21 21 21 21 20 19 18 19 21 23 25 25 25 25 24 24 23 23 23 23 23 23 22 21 20 18 16 15 15 15 15 14 13 12 11 10 10 10 10 9 9 9 9 9 9 9 9 8 8 8 8 7 7
25 25 24 23 24 25 26 28 29 29 29 28 28 27 25 22 20 20 20 20 20 19 20 21 22 23 24 24 24 24 24 24 24 24 25 25 24 24 23 21 19 17 15 13 13 13 13 12 12 11 10 9 9 9 8 8 8 8 8 8 8 8 8 8 8 7 7 6 6
25 25 24 23 22 23 25 27 28 29 29 28 27 26 25 22 18 18 19 20 20 20 20 21 21 22 23 23 23 23 22 22 23 23 23 24 24 23 22 21 18 16 14 12 12 11 11 11 10 9 9 8 8 7 7 7 7 7 7 7 7 7 7 7 7 7 6 6 5
25 25 25 23 22 22 24 26 27 28 29 28 27 26 25 22 18 17 18 19 19 19 19 20 20 21 21 22 22 21 21 20 20 20 20 21 21 21 21 19 17 15 13 11 10 10 9 9 8 8 7 7 7 6 6 6 6 7 7 8 8 8 8 8 7 7 6 5 4
25 25 25 24 22 22 23 25 26 27 27 27 27 26 25 24 20 16 16 17 17 17 17 17 18 18 19 20 20 19 19 18 18 18 18 18 19 19 19 18 16 14 13 11 10 8 8 7 7 6 6 6 6 6 6 6 6 7 8 8 9 9 9 9 8 7 6 5 4
24 24 25 24 23 22 23 24 25 25 26 26 26 26 26 25 22 18 16 15 15 15 15 15 15 16 16 16 17 17 16 16 16 16 16 16 16 17 17 16 16 14 13 11 9 8 7 6 6 6 6 6 5 5 6 6 7 8 9 9 9 9 9 9 9 8 7 6 6
23 23 23 23 23 23 23 23 24 24 25 25 26 26 26 25 23 20 17 15 14 14 14 14 14 15 15 15 14 15 15 15 15 15 15 15 15 15 15 15 15 15 14 12 10 8 6 6 5 6 6 6 6 6 6 7 8 9 10 10 10 9 9 9 9 9 9 9 9
23 22 22 22 22 22 22 23 23 23 23 24 24 24 24 24 23 20 18 14 13 12 12 12 13 13 14 14 14 14 15 15 15 15 15 15 15 15 15 15 15 15 14 13 11 9 7 6 5 5 6 6 6 7 8 9 10 10 11 11 10 10 9 9 9 10 10 10 10
23 23 22 21 21 21 21 22 22 22 22 22 22 23 23 23 22 20 18 15 12 10 8 8 9 10 11 12 13 13 13 14 14 14 15 15 15 14 14 14 14 14 14 13 11 10 9 7 5 5 5 6 7 8 9 10 10 10 10 11 10 10 9 9 9 9 9 9 9
23 23 22 22 21 20 20 21 21 21 21 21 21 21 22 21 21 19 18 15 13 10 7 5 5 7 9 11 12 13 13 13 13 13 13 13 13 13 13 13 13 13 13 12 12 11 10 8 5 4 6 7 8 9 9 10 10 10 10 10 10 9 8 8 8 8 8 8 8
23 23 22 22 21 20 20 20 20 20 20 20 19 20 20 20 19 18 17 16 14 12 10 8 6 6 8 10 12 12 13 12 12 12 11 11 11 11 12 13 12 12 12 11 11 11 10 8 5 6 7 8 9 9 9 9 9 9 9 9 9 9 8 8 7 7 7 8 8
22 22 22 22 21 20 20 20 20 20 20 19 19 18 19 19 18 17 16 16 15 14 12 11 9 8 9 10 11 12 12 11 11 10 10 9 9 10 11 12 12 11 10 10 10 11 11 9 8 9 9 9 10 10 9 9 9 9 8 8 8 8 7 8 7 7 8 8 8
Wind_Direction
326 324 322 319 317 314 311 308 305 302 299 295 291 287 283 279 273 268 262 262 268 285 301 315 337 7 55 130 178 180 174 173 182 189 192 193 194 197 201 201 202 209 220 228 235 238 241 246 252 251 247 245 243 242 241 242 247 250 250 247 246 245 246 246 246 247 249 250 251
325 322 320 318 316 314 312 310 307 305 302 299 295 289 281 275 271 266 257 244 234 234 251 274 311 31 69 87 114 202 227 222 192 184 187 187 191 195 197 196 197 201 206 213 221 227 232 241 254 261 262 260 260 259 257 255 257 260 260 258 255 254 253 251 250 250 249 248 248
324 322 319 318 316 315 314 311 308 306 304 302 299 293 285 275 268 262 254 239 225 218 219 224 228 202 98 102 122 196 235 235 196 178 181 180 186 192 196 194 194 198 202 207 214 222 230 239 257 266 267 266 267 270 271 270 270 271 271 268 264 260 257 254 253 252 250 248 246
324 321 319 317 316 315 314 311 308 306 305 304 303 299 292 281 271 262 254 241 227 214 209 207 208 209 215 233 255 265 265 260 230 190 177 178 186 193 198 199 199 201 205 211 218 228 238 251 263 268 266 262 263 267 272 274 273 273 274 271 267 261 256 252 251 250 248 246 245
323 320 318 315 315 314 313 311 309 307 305 304 304 302 298 290 279 266 255 244 232 222 214 210 206 206 212 229 251 264 269 268 260 235 196 192 194 198 199 199 198 199 207 224 247 263 270 273 274 273 271 266 263 263 264 264 264 267 269 269 265 259 254 250 248 246 245 244 243
321 319 316 315 314 314 313 312 310 309 307 305 303 301 298 293 285 273 260 249 241 235 228 221 214 210 212 224 242 254 258 257 248 233 216 208 203 196 189 184 185 196 238 288 301 300 293 286 281 277 275 270 265 261 260 259 260 263 266 267 264 258 252 249 247 246 245 245 243
320 318 317 315 315 315 314 313 312 310 308 305 302 299 296 292 285 277 266 256 247 239 231 225 219 215 213 216 221 223 221 217 225 240 247 242 227 210 196 192 203 231 267 284 286 283 280 277 274 273 272 268 264 261 259 259 260 262 265 267 264 260 258 256 253 251 250 249 248
320 318 318 317 316 316 315 315 314 313 310 307 303 299 296 293 287 278 268 259 249 237 226 219 214 212 209 202 195 189 189 201 224 247 257 256 251 237 213 195 196 212 233 248 252 254 256 257 259 262 263 264 262 260 260 263 263 264 265 266 265 262 262 264 262 260 258 256 254
321 320 320 319 318 317 317 316 315 314 312 308 304 300 296 293 287 279 269 260 251 240 227 218 211 205 198 189 184 185 192 202 215 232 244 248 250 247 237 214 190 183 192 211 224 231 237 241 244 250 256 261 262 263 265 268 270 270 269 269 269 267 265 266 268 269 267 264 261
323 322 322 320 320 319 318 318 316 314 312 309 306 303 299 293 287 278 269 261 254 245 236 229 222 214 204 193 186 187 194 204 213 222 229 230 227 222 212 195 170 158 163 183 202 213 219 224 232 242 254 262 269 272 274 276 279 279 277 274 277 278 275 270 272 278 280 277 275
324 324 323 321 321 320 320 319 317 314 312 310 309 308 303 296 287 278 269 261 255 248 242 237 228 217 207 198 190 191 199 210 219 224 223 218 215 201 178 158 142 134 138 155 179 189 192 194 200 220 251 271 283 284 284 283 284 285 284 284 287 290 289 284 282 283 287 289 290
326 325 323 322 322 322 321 319 316 314 311 310 309 309 306 300 291 280 268 258 252 246 242 235 219 203 193 187 186 193 204 215 222 224 221 215 217 203 171 143 126 120 123 131 144 151 155 162 165 161 151 108 301 292 288 287 291 293 296 296 300 304 304 299 293 290 289 290 293
327 326 325 324 324 323 321 319 317 314 311 309 308 307 305 301 294 283 270 257 248 243 237 226 203 187 181 181 184 191 202 214 218 216 205 188 173 160 144 128 120 118 118 120 121 130 147 162 163 156 147 144 154 218 294 308 319 328 332 334 337 335 329 319 309 300 294 289 291
328 327 327 326 326 325 323 321 319 317 315 312 310 307 303 297 290 282 272 260 251 244 237 226 208 194 189 188 190 196 205 210 208 199 183 166 151 139 129 124 122 121 120 118 118 127 140 150 151 148 145 138 124 105 75 41 17 6 1 358 356 352 346 339 331 324 316 308 302
330 329 329 329 328 327 326 325 324 323 322 321 319 316 309 299 285 273 264 258 253 247 240 231 220 212 210 209 210 209 206 202 193 179 165 155 146 138 133 132 131 131 128 126 127 130 132 127 124 127 132 127 112 96 83 73 59 43 32 24 16 10 5 2 356 353 354 353 352
332 331 331 331 330 329 329 329 329 330 330 330 330 328 324 316 300 277 258 248 245 243 238 229 220 216 218 220 218 212 204 195 188 175 163 157 150 144 141 141 141 141 141 137 135 131 125 115 111 116 123 123 112 102 93 88 83 75 66 57 46 38 36 37 32 24 19 20 27
334 333 333 332 332 332 332 333 334 335 335 335 336 337 335 333 328 314 280 246 233 227 221 213 205 203 204 206 205 207 209 199 189 177 167 160 152 148 147 147 145 144 144 143 138 132 122 113 111 115 120 119 113 108 104 101 98 94 90 86 80 68 61 57 55 52 42 33 34
336 335 334 334 334 334 335 336 337 338 339 339 340 340 341 340 340 339 335 311 211 192 186 181 177 175 177 183 191 201 203 192 178 169 163 157 152 150 150 149 144 140 139 140 138 134 125 116 115 116 117 116 113 109 108 107 104 101 97 91 88 80 72 66 62 61 56 46 42
338 337 336 336 336 337 338 339 341 342 343 343 343 343 343 343 345 348 352 3 33 114 140 143 145 152 162 172 177 179 175 165 162 162 160 156 152 149 148 146 142 137 135 135 137 137 132 123 116 113 112 112 110 108 106 104 102 97 92 87 84 79 75 71 69 68 68 66 64
341 340 339 339 339 340 341 343 345 346 346 345 345 345 344 343 346 349 355 3 18 43 77 100 111 126 143 155 155 152 150 152 155 158 157 152 146 143 141 140 139 137 137 138 140 138 132 124 116 110 107 106 105 104 102 100 98 94 90 84 81 79 76 74 71 70 71 71 72
345 344 344 344 344 344 345 346 347 348 347 347 346 346 344 344 345 348 352 358 9 28 52 76 93 112 127 137 142 145 147 150 151 151 146 140 135 132 132 133 133 133 134 137 138 135 128 121 114 108 104 102 101 100 99 97 94 92 88 85 82 80 77 74 71 68 67 66 67
349 349 349 349 349 349 348 349 349 350 349 349 348 348 347 346 346 346 348 353 3 17 34 54 87 118 134 141 145 146 145 142 138 135 131 127 124 124 123 121 119 117 117 119 120 120 117 112 107 103 101 100 99 98 97 95 92 89 86 83 80 77 73 70 67 64 61 60 60
354 353 353 355 355 354 352 352 352 352 352 351 351 351 350 350 349 348 349 354 3 13 23 38 79 135 153 154 148 138 130 122 118 117 116 115 114 114 112 110 107 105 103 102 104 105 104 101 99 97 96 96 96 95 92 90 88 85 81 78 74 71 68 65 61 57 54 52 50
357 357 358 360 360 358 356 355 354 354 354 353 353 353 353 354 355 355 354 358 7 17 28 45 74 104 116 118 116 112 108 102 100 101 102 103 103 103 102 101 100 97 94 93 93 96 97 96 95 94 94 93 92 89 86 83 81 79 76 73 71 69 66 63 59 53 49 44 41
359 -0 2 4 3 1 359 357 357 357 356 356 355 355 356 359 2 5 7 11 19 34 51 67 78 85 90 92 92 92 91 88 88 90 92 92 93 93 93 93 92 89 87 86 85 87 90 92 93 94 93 91 89 86 83 80 78 77 75 73 71 68 65 62 58 53 48 43 39
0 2 5 6 5 3 0 359 359 359 359 359 359 358 360 4 11 19 27 34 44 57 68 76 79 81 82 83 82 80 78 77 80 83 84 84 84 85 86 86 85 85 84 84 84 84 85 87 88 89 89 88 87 86 84 81 79 77 76 74 72 69 65 61 57 52 48 44 39
2 3 6 9 7 5 2 1 0 0 1 2 1 1 4 11 21 32 42 49 56 64 70 74 76 79 80 81 79 76 73 73 76 79 81 81 81 81 81 82 82 83 84 84 83 83 84 85 85 84 83 84 84 84 84 82 80 78 77 75 73 70 66 62 57 51 46 41 38
3 5 7 10 9 7 5 3 1 0 1 2 4 5 8 17 28 39 47 53 57 60 63 67 72 76 79 79 78 77 75 74 74 77 79 80 79 78 77 78 78 80 81 81 80 80 81 82 83 83 83 83 84 84 84 84 83 81 79 77 74 71 67 63 58 51 43 35 33
5 6 7 9 9 8 7 5 2 0 0 3 6 8 12 20 32 41 47 51 54 55 57 62 68 73 75 75 75 74 74 73 73 74 76 76 74 73 72 72 73 75 76 77 77 75 74 75 77 79 82 85 87 88 89 89 89 88 86 82 78 74 69 64 58 52 44 34 29
6 6 6 6 8 9 8 6 3 1 1 4 7 10 13 21 33 43 47 50 51 53 57 63 69 72 73 73 72 70 68 67 67 68 69 69 67 66 66 66 67 68 70 72 71 70 69 69 71 74 77 83 88 91 92 93 93 93 91 88 84 78 73 66 59 52 45 38 32
4 4 3 3 6 9 9 7 5 4 4 6 9 11 14 19 33 44 49 53 55 59 63 67 70 73 75 75 73 69 66 64 63 62 62 62 62 62 62 61 61 61 61 63 64 63 62 63 64 67 72 77 84 87 90 91 92 92 91 88 84 78 73 67 61 55 49 43 37
1 0 359 359 4 9 10 8 7 6 7 9 11 12 14 18 31 45 53 57 60 63 65 67 69 72 75 76 74 71 67 64 62 61 60 60 60 59 58 56 54 52 51 52 54 55 54 54 56 60 65 72 78 82 85 88 89 89 87 84 80 75 69 63 59 54 50 44 39
360 358 357 357 3 9 12 9 8 7 8 9 11 13 14 16 28 44 54 57 60 63 65 66 68 70 72 74 73 71 68 66 64 62 61 61 60 58 55 52 48 44 41 41 45 48 50 49 50 54 60 65 72 76 79 83 86 86 84 81 77 73 69 66 60 53 45 37 35
359 358 358 359 4 10 12 10 9 8 8 9 10 12 14 15 23 38 53 57 60 63 66 68 70 71 72 73 72 71 69 67 65 64 63 62 61 58 54 49 43 39 36 36 36 39 45 48 49 52 56 60 66 69 73 76 81 83 82 79 75 72 70 67 60 51 40 31 32
358 359 -0 2 6 10 12 10 9 8 8 8 9 11 13 15 20 32 48 59 63 65 68 71 73 74 73 72 70 68 65 63 62 61 61 60 59 57 52 46 39 34 32 32 32 33 37 44 48 51 55 59 63 65 66 71 75 77 76 75 73 72 70 66 57 45 37 36 41
358 360 2 4 7 10 11 10 8 7 7 8 9 10 11 13 17 25 39 55 63 67 69 72 75 76 75 73 70 67 63 60 57 55 53 53 52 51 47 41 35 30 27 26 27 28 30 35 43 49 54 60 64 65 67 71 73 73 71 69 68 69 68 65 56 47 44 48 51
359 360 2 4 7 9 10 10 8 6 5 5 7 8 9 10 13 19 28 41 54 64 70 75 77 78 78 76 73 70 66 62 58 54 51 48 46 44 40 36 31 26 23 21 21 19 19 22 31 43 54 61 66 69 71 73 73 70 66 63 62 64 65 64 59 55 54 58 58
0 1 1 3 4 6 8 8 7 4 2 1 3 5 7 8 9 12 18 25 35 47 62 75 81 84 84 83 79 74 69 65 61 58 54 49 45 41 37 33 28 23 20 17 15 12 8 7 17 38 56 65 70 72 74 74 71 67 61 56 54 56 59 62 62 62 64 66 65
2 1 1 1 1 3 4 5 4 1 359 357 358 1 3 5 5 7 10 15 21 27 36 52 74 87 91 89 84 79 73 68 65 61 57 51 45 39 35 32 28 22 17 13 11 7 2 359 15 50 66 70 74 75 75 72 69 64 58 52 47 47 50 55 60 64 68 68 63
2 1 -0 359 359 359 1 1 1 358 356 355 355 356 358 359 1 3 6 10 15 20 23 29 47 75 88 89 85 79 73 69 65 62 57 51 43 35 31 28 27 23 18 14 10 6 2 6 39 70 75 73 74 74 73 71 68 64 57 49 44 41 42 46 52 60 64 60 54
360 359 358 357 356 356 357 358 357 356 354 353 353 354 355 355 357 360 4 9 15 20 24 30 43 63 79 83 80 75 70 65 62 59 54 48 40 32 27 24 24 24 22 17 12 8 12 29 62 77 77 73 74 72 70 70 69 64 56 49 45 41 40 41 45 52 56 52 47
Height
769 768 766 764 762 760 758 755 753 751 748 746 744 742 741 739 737 735 733 732 732 731 731 732 732 733 733 734 735 736 735 735 735 735 736 736 736 737 738 738 739 739 739 740 740 740 740 740 740 740 740 740 740 741 741 742 742 743 743 744 744 744 744 744 744 745 745 745 746
769 767 766 764 762 759 757 754 752 750 748 745 744 742 740 739 737 734 733 731 730 730 730 731 731 731 732 733 735 737 737 736 735 735 735 736 736 736 737 738 738 739 739 739 740 740 740 740 740 739 739 739 740 740 741 742 742 742 742 743 743 743 743 743 744 744 744 745 745
767 766 764 763 761 759 757 754 752 749 747 745 743 740 739 737 736 734 732 729 728 728 728 729 729 730 731 733 735 737 738 737 736 736 736 736 736 736 736 737 737 738 739 739 739 739 739 739 739 739 739 739 740 740 740 741 741 742 742 742 742 742 743 743 743 744 744 744 744
766 765 764 762 760 758 756 754 751 749 746 744 742 740 738 736 734 733 731 729 727 726 726 727 728 729 730 732 734 736 737 737 736 736 736 736 736 736 736 736 737 738 738 738 739 739 739 739 739 739 739 739 739 740 740 740 740 741 741 742 742 742 742 742 743 743 743 744 744
765 764 762 761 759 757 755 753 751 748 746 744 741 739 738 736 734 732 730 728 726 725 724 725 725 727 728 730 732 734 735 736 736 737 737 737 736 736 736 736 736 737 737 738 738 738 738 738 739 739 739 739 739 739 739 740 740 740 741 741 741 741 742 742 742 742 742 742 743
764 762 761 759 758 756 754 752 749 747 745 743 741 739 737 736 734 732 729 728 726 724 724 723 724 724 726 729 731 733 734 735 736 737 737 737 736 736 735 735 735 735 736 736 736 737 737 738 739 739 739 739 739 739 739 740 740 740 740 740 741 741 741 741 741 741 742 742 742
763 762 760 758 756 754 753 750 748 746 744 742 740 738 736 735 734 732 729 727 725 724 723 722 722 723 724 726 729 731 733 734 735 736 737 737 736 735 734 734 733 733 734 734 736 737 738 739 739 739 739 739 739 739 739 740 740 740 740 740 740 740 740 740 740 740 741 741 741
762 760 759 757 755 753 751 749 747 745 743 740 739 737 735 734 733 732 729 727 725 723 722 721 721 721 722 724 727 729 731 733 734 735 736 735 735 734 733 732 732 733 734 735 736 738 739 739 739 739 739 739 739 739 739 739 739 739 739 739 739 739 739 739 740 740 740 740 740
761 759 757 755 754 752 750 748 746 744 741 739 737 735 734 732 731 730 728 726 724 723 722 721 720 720 721 722 724 726 728 730 732 733 734 734 734 734 733 733 733 733 734 735 737 738 738 738 738 738 738 738 738 738 739 739 739 739 739 738 738 738 738 739 739 739 739 739 739
760 758 756 754 752 750 749 746 744 742 740 737 735 733 732 730 729 728 726 725 724 722 721 720 719 719 719 720 722 724 726 728 730 732 733 734 734 734 734 734 733 733 734 735 736 737 737 737 737 738 737 737 737 738 738 738 738 738 738 738 738 738 738 738 738 738 738 739 739
759 758 756 754 752 749 748 745 743 740 738 736 734 731 730 728 727 725 724 723 722 721 720 719 718 717 717 718 720 722 724 727 729 731 732 733 733 733 733 733 733 733 734 735 736 736 736 737 737 737 737 737 737 737 738 738 738 738 738 738 738 737 737 738 738 738 738 738 738
759 757 755 753 751 749 747 744 742 739 737 735 732 730 728 726 725 723 722 721 720 720 719 718 716 715 715 716 718 720 722 725 727 729 730 731 731 732 732 732 733 734 734 735 735 736 736 736 736 736 736 736 737 737 738 738 738 738 738 738 737 737 737 737 737 737 737 737 737
758 756 754 752 750 748 746 744 741 738 736 734 731 729 727 725 723 722 721 720 719 719 719 717 716 714 714 714 716 719 721 724 726 728 729 729 730 730 731 732 733 734 734 735 735 736 736 737 736 736 736 736 737 737 738 738 738 737 737 737 737 737 737 737 737 737 737 737 737
757 755 754 752 750 748 745 743 740 737 735 732 730 728 726 724 722 721 720 719 718 718 718 717 716 715 714 714 716 718 720 723 725 726 727 728 729 729 730 731 733 734 735 735 736 736 737 737 736 736 736 736 736 736 736 736 736 736 736 736 736 736 736 736 736 737 737 737 736
756 754 753 751 749 747 745 742 739 737 734 732 729 727 724 722 720 719 719 718 717 717 717 716 715 714 714 715 716 718 720 722 724 725 726 727 728 728 729 730 732 733 734 735 736 736 737 736 736 735 735 734 734 734 734 734 735 735 735 736 736 736 736 736 736 736 736 736 736
756 754 752 751 749 747 744 742 739 737 734 731 729 726 724 722 719 718 716 715 714 714 714 714 713 713 713 714 716 718 719 721 723 724 725 726 726 727 728 729 731 733 734 735 735 736 735 735 734 734 733 733 733 733 733 733 734 734 735 736 736 736 736 736 736 736 736 736 736
755 754 752 750 749 746 744 742 739 737 734 731 729 726 724 722 719 717 715 714 713 712 712 712 711 711 712 713 714 716 718 719 721 723 724 724 725 726 727 729 730 732 733 734 734 734 734 733 733 732 732 731 731 731 732 733 734 735 735 736 736 736 736 736 736 736 736 736 736
755 754 752 750 748 746 744 742 739 737 734 732 729 727 724 722 720 718 716 714 713 712 711 711 711 711 711 712 712 714 716 718 720 722 723 723 724 725 727 729 730 731 732 732 733 733 733 733 732 732 731 730 730 731 731 733 734 735 736 736 736 736 736 736 735 736 736 736 736
755 753 751 750 748 746 744 742 739 737 735 732 730 727 725 723 721 719 717 715 714 713 712 711 711 712 712 713 713 714 715 717 719 721 722 723 723 725 726 728 729 730 730 731 732 732 732 732 732 731 730 730 730 730 732 733 734 735 736 736 736 736 736 736 736 736 736 736 736
755 754 752 750 749 747 744 742 740 737 735 733 730 728 725 724 722 720 718 717 716 715 714 713 713 714 714 715 715 715 716 717 719 721 722 722 723 724 726 727 728 729 729 730 731 732 732 732 731 730 729 729 730 731 732 734 735 735 736 736 736 736 736 736 736 736 736 736 736
756 754 753 751 749 747 745 743 740 738 735 733 731 728 726 724 723 721 719 718 717 716 716 715 716 716 716 717 717 718 718 719 719 720 721 722 723 724 725 726 728 729 729 730 731 732 731 731 730 729 729 729 730 732 733 734 735 736 736 737 737 736 736 736 736 736 736 737 737
756 755 753 751 749 748 746 743 741 739 736 734 731 729 727 725 723 722 721 719 719 718 718 718 718 718 719 719 719 719 719 719 720 721 721 722 723 724 725 726 728 729 730 731 731 731 730 730 729 729 729 730 731 733 734 735 736 736 737 737 737 737 737 737 737 737 737 737 737
757 755 754 752 750 749 746 744 741 739 737 734 732 730 728 726 724 723 722 720 720 719 719 719 720 720 720 721 721 721 721 721 721 722 722 723 724 724 725 727 728 729 730 731 731 730 730 729 729 729 730 731 733 734 735 735 736 736 737 737 737 737 737 737 737 738 738 738 738
758 756 755 753 751 749 747 744 742 740 737 735 733 731 729 727 725 724 723 722 721 721 720 721 721 721 722 722 722 722 722 722 723 723 724 724 725 725 726 728 729 729 730 730 730 730 730 730 730 730 731 733 734 735 735 736 736 736 737 737 737 737 738 738 738 738 738 739 739
759 757 755 754 752 750 748 745 743 741 739 736 734 732 729 728 726 724 724 723 722 722 722 722 722 722 722 723 723 723 723 724 724 725 725 726 726 727 728 728 729 730 730 731 731 731 731 731 731 732 733 734 735 735 736 736 737 737 737 737 738 738 738 738 739 739 739 739 739
759 758 756 755 753 751 749 747 744 742 740 738 735 733 731 729 727 726 725 724 724 724 724 724 724 723 723 724 724 724 724 725 725 726 726 727 727 728 729 729 730 730 731 731 732 732 733 733 734 734 734 735 735 736 736 737 737 737 737 738 738 739 739 739 739 739 740 740 740
760 759 757 756 754 752 750 748 746 744 741 739 737 734 732 731 729 728 727 726 726 726 725 725 725 725 724 724 725 725 725 726 727 727 728 728 729 729 730 731 731 731 732 732 733 734 734 735 735 735 735 736 736 737 737 737 737 738 738 738 739 739 739 739 739 740 740 741 741
761 760 759 757 755 753 751 749 747 745 743 741 739 736 734 733 732 730 729 728 728 728 728 728 727 727 726 726 726 727 727 728 729 729 730 730 730 731 732 732 733 733 733 734 734 735 736 736 736 736 737 737 737 737 738 738 738 738 739 739 739 739 739 740 740 740 741 741 742
763 761 760 758 756 754 753 751 749 747 744 743 740 739 737 735 734 733 731 731 730 730 730 730 729 729 728 729 729 729 730 730 731 731 731 732 732 733 733 733 734 734 734 735 736 736 737 737 737 738 738 738 738 738 738 739 739 739 739 739 739 740 740 740 740 741 741 741 742
764 763 761 759 758 756 754 752 750 749 746 744 742 740 739 738 737 735 734 734 733 733 733 732 732 731 731 731 732 732 732 733 733 733 733 733 733 734 734 734 734 735 736 737 737 738 738 738 739 739 739 739 739 739 739 739 739 739 739 740 740 740 740 741 741 741 741 742 742
765 764 762 760 759 757 756 754 752 750 748 746 744 743 741 740 739 739 737 737 736 736 735 734 734 734 734 734 734 735 735 735 735 735 734 734 735 735 735 736 736 737 738 738 738 739 739 739 739 739 739 739 739 739 739 739 739 739 739 740 740 740 740 741 741 741 742 742 742
766 765 763 761 760 759 757 755 754 752 750 748 746 745 744 743 742 741 740 739 739 738 738 737 737 737 736 736 737 737 738 738 738 738 737 737 737 737 738 738 738 739 739 739 739 740 740 740 740 740 740 740 740 740 740 740 740 740 740 740 740 740 741 741 741 741 742 742 742
767 766 764 762 761 760 759 757 755 754 752 750 749 747 746 745 744 743 742 741 741 741 740 740 740 739 739 739 739 739 740 740 740 740 740 740 740 740 740 740 740 740 740 741 741 741 741 741 741 741 741 741 740 740 740 740 740 740 740 740 740 741 741 741 741 742 742 742 743
769 767 765 764 762 761 760 758 757 755 754 752 751 749 748 747 746 745 744 744 743 743 743 742 742 742 742 741 741 742 742 742 742 742 742 742 742 742 742 742 742 742 742 742 742 742 742 742 742 742 741 741 741 741 741 741 741 740 740 740 741 741 741 741 742 742 742 743 743
770 768 767 765 764 762 761 760 759 757 756 754 753 751 750 749 748 747 747 746 745 745 744 744 744 744 743 743 743 743 743 744 744 744 744 744 744 744 744 744 743 743 743 743 742 742 742 742 742 742 742 742 741 741 741 741 741 741 741 741 741 741 741 742 742 742 743 743 743
771 770 768 766 765 764 763 761 760 759 757 756 754 753 752 751 750 749 748 748 747 747 746 746 745 745 745 745 745 745 745 745 745 745 745 745 745 745 745 744 744 744 744 743 743 743 743 743 743 743 742 742 742 742 741 741 741 741 741 741 741 741 742 742 742 743 743 743 743
772 771 769 768 767 765 764 763 761 760 759 758 757 755 754 753 751 750 750 749 749 749 748 748 747 746 746 746 746 746 746 746 746 746 746 746 746 746 746 745 745 744 744 744 744 744 743 743 743 743 743 742 742 742 741 741 741 741 741 742 742 742 742 742 743 743 743 744 744
773 772 771 769 768 767 765 764 763 762 760 759 758 757 756 754 753 752 751 750 750 750 749 749 748 748 748 747 747 747 747 747 747 747 747 747 747 747 747 746 746 745 745 744 744 744 744 744 743 743 743 743 742 742 741 741 741 741 742 742 742 743 743 743 743 744 744 744 744
774 773 772 771 769 768 766 765 764 763 762 761 759 758 757 756 754 754 752 751 751 750 750 749 749 749 748 748 748 747 747 747 747 747 748 748 748 748 747 747 747 746 745 745 745 744 744 744 743 743 743 743 742 742 742 742 742 742 742 743 743 743 743 744 744 744 744 744 745
775 774 773 772 770 769 768 766 765 764 763 762 760 759 758 757 756 754 754 752 751 751 750 750 749 749 749 748 748 748 748 748 748 748 748 748 748 748 748 748 747 747 746 746 745 745 744 743 743 743 743 743 742 742 742 743 743 743 743 743 744 744 744 744 744 744 745 745 745
776 775 774 773 771 770 769 767 766 765 764 763 762 760 759 758 757 755 754 753 752 751 751 750 750 749 749 749 749 749 749 749 749 748 748 748 748 748 748 748 748 747 747 746 746 745 744 743 743 743 743 743 743 743 743 743 744 744 744 744 744 744 744 744 745 745 745 745 745